Location: Csohesd
(46.2500°N, 22.6167°E)
Time: 13:36:40
(UTC+00:00)

Cosmos 2123 Rocket - Pass Details

Date: 21 October 2021
Orbit: 961 x 992 km, 82.9° (Epoch: 07 December)

Event Time Altitude Azimuth Distance (km) Brightness Sun altitude
Rises 16:36:20 0° 353° (N) 3,720 7.1 -11.7°
Reaches altitude 10° 16:38:54 10° 356° (N) 2,766 6.4 -12.2°
Maximum altitude 16:45:14 68° 79° (E) 1,065 4.0 -13.2°
Drops below altitude 10° 16:51:29 10° 162° (SSE) 2,734 6.2 -14.3°
Sets 16:54:00 0° 165° (SSE) 3,673 6.9 -14.8°
